Preview of NWS' New Version of Forecast
This preview is not operational and should not be used for support decisions.

Regional Weather Roundup (RWR)

Issued by National Weather Service (NWS)

                            
000
ASUS46 KPQR 181510
RWROR 

OREGON REGIONAL WEATHER ROUNDUP
NATIONAL WEATHER SERVICE PORTLAND OR
800 AM PDT THU APR 18 2019

NOTE: "FAIR" INDICATES FEW OR NO CLOUDS BELOW 12,000 FEET WITH
NO SIGNIFICANT WEATHER AND/OR OBSTRUCTIONS TO VISIBILITY.

ORZ001>013-181600-
NORTHWEST OREGON

  
CITY           SKY/WX    TMP DP  RH WIND       PRES   REMARKS
ASTORIA        LGT RAIN  50  47  89 CALM      30.24R FOG              
TILLAMOOK      MOSUNNY   50  48  93 CALM      30.25S                  
NEWPORT        SUNNY     52  50  93 E5        30.25S                  
PORTLAND       CLOUDY    51  46  83 E3        30.27F                  
VANCOUVER WA   CLOUDY    50  46  86 CALM      30.27S                  
SCAPPOOSE      CLOUDY    51  47  86 CALM      30.27R                  
HILLSBORO      PTSUNNY   48  46  93 CALM      30.26R                  
AURORA         MOSUNNY   51  48  89 CALM      30.27S                  
MCMINNVILLE    MOSUNNY   50  48  93 N3        30.26S                  
SALEM          MOSUNNY   52  48  86 CALM      30.25S                  
CORVALLIS      PTSUNNY   48  47  96 CALM      30.26F                  
EUGENE         PTSUNNY   52  49  89 S6        30.26F                  
$$

ORZ021-028-181600-
SOUTHWEST OREGON

  
CITY           SKY/WX    TMP DP  RH WIND       PRES   REMARKS
NORTH BEND     PTSUNNY   52  51  97 SE6       30.23F                  
BROOKINGS      SUNNY     54  52  93 NW3       30.19S                  
ROSEBURG       MOSUNNY   51  47  86 CALM      30.27R                  
SEXTON SUMMIT  SUNNY     55  44  66 SE6       30.29R                  
GRANTS PASS    FAIR      48  45  87 CALM      30.31R                  
MEDFORD        SUNNY     49  44  83 CALM      30.29R                  
$$

ORZ014>016-041-181600-
COLUMBIA GORGE

  
CITY           SKY/WX    TMP DP  RH WIND       PRES   REMARKS
TROUTDALE      CLOUDY    50  45  83 E8        30.26F                  
HOOD RIVER     SUNNY     46  43  87 MISG      30.28S                  
THE DALLES     SUNNY     50  44  80 CALM      30.28R                  
$$

ORZ029>031-041-044-049-050-061>064-502-503-505>511-181600-
EASTERN OREGON

  
CITY           SKY/WX    TMP DP  RH WIND       PRES   REMARKS
MADRAS         SUNNY     45  39  81 CALM      30.31R                  
REDMOND        MOSUNNY   49  36  61 S7        30.30S                  
BEND           MOSUNNY   50  39  66 S6        30.31S                  
PRINEVILLE     MOSUNNY   48  37  66 CALM      30.32R                  
KLAMATH FALLS  SUNNY     46  42  86 CALM      30.33R                  
LAKEVIEW       SUNNY     43  37  79 NW5       30.36R                  
HERMISTON      PTSUNNY   52  43  71 CALM      30.25R                  
PENDLETON      PTSUNNY   51  42  71 SE6       30.26R                  
JOHN DAY       SUNNY     46  37  72 SE7       30.34F                  
MEACHAM        PTSUNNY   39  35  86 CALM      30.30S                  
LA GRANDE      SUNNY     42  38  85 CALM      30.34S                  
BAKER CITY     SUNNY     42  32  67 CALM      30.35R                  
BURNS          SUNNY     45  38  76 CALM      30.36R                  
ROME             N/A     48  40  73 SE7       30.35R                  
ONTARIO        SUNNY     47  40  76 W3        30.37R                  
$$